Regional Weather Roundup
Issued by NWS San Diego, CA

Home | Current Version | Previous Version | Text Only | Print | Product List | Glossary On
Versions: 1 2 3 4 5 6 7 8 9 10 11 12 13 14 15 16 17 18 19 20 21 22 23 24 25 26 27 28 29 30 31 32 33 34 35 36 37 38 39 40 41 42 43 44 45 46 47 48 49 50
415
ASUS46 KSGX 241411
RWRSGX
SAN DIEGO HOURLY WEATHER ROUNDUP
NATIONAL WEATHER SERVICE SAN DIEGO CA
700 AM PDT MON APR 24 2017

NOTE: "FAIR" INDICATES FEW OR NO CLOUDS BELOW 12,000 FEET WITH NO
SIGNIFICANT WEATHER AND/OR OBSTRUCTIONS TO VISIBILITY.

CAZ042-043-060-061-PZZ750-775-241500-

GREATER SAN DIEGO AREA

CITY           SKY/WX    TMP DP  RH WIND       PRES   REMARKS
SAN DIEGO AP   CLOUDY    61  51  70 S9        29.93R
NATIONAL CITY    N/A     61  55  80 S3        29.93R
CHULA VISTA      N/A     60  55  83 SW3       29.85R
IMPERIAL BEACH CLOUDY    60  53  77 S8        29.93R
BROWN FIELD    CLOUDY    59  53  80 S7        29.92R
MIRAMAR MCAS   CLOUDY    63  52  67 S6        29.92R
MONTGOMERY FLD CLOUDY    59  52  77 S7        29.92R

$$

NORTH SAN DIEGO COUNTY

CITY           SKY/WX    TMP DP  RH WIND       PRES   REMARKS
CAMP PENDLETON CLOUDY    61  55  81 S3        29.90R HAZE
OCEANSIDE AP   CLOUDY    62  55  77 SE6       29.90R
OCEANSIDE HBR    N/A     61  56  83 E3        29.93R
CARLSBAD       CLOUDY    61  54  77 S7        29.90R
DEL MAR          N/A     59  54  82 W3        29.93R
LA JOLLA SCRIP   N/A     59  55  85 SE7       29.91R
FALLBROOK        N/A     59  57  92 CALM      29.88R
ESCONDIDO        N/A     60  53  78 SE7       29.92R
SAN MARCOS       N/A     58  53  81 S3        29.92R
POWAY            N/A     59  53  80 CALM      29.93R

$$

EAST SAN DIEGO COUNTY

CITY           SKY/WX    TMP DP  RH WIND       PRES   REMARKS
RAMONA         CLOUDY    56  52  86 SE5       29.92R
SANTEE LAKES     N/A     60  54  80 CALM      29.91R
LA MESA          N/A     58  53  83 CALM      29.85R
JAMUL            N/A     56  52  86 CALM      29.92R
DESCANSO N       N/A     42  35  78 CALM      29.83R
MT. LAGUNA OBS   N/A     48  33  56 W16       29.54R
CAMPO            N/A     39  37  92 CALM      29.90R

$$

ORANGE COUNTY AND THE LOS ANGELES BASIN

CITY           SKY/WX    TMP DP  RH WIND       PRES   REMARKS
JOHN WAYNE AP  MOCLDY    63  53  70 SE6       29.90R
LAKE FOREST FR   N/A     57  49  75 CALM      29.79R
HUNTINGTON BCH   N/A     60  57  91 CALM      29.92R
LOS ALAMITOS   FAIR      59  55  85 S5        29.90R
FULLERTON      MOCLDY    63  55  75 CALM      29.89R
LONG BEACH     PTCLDY    61  53  75 S5        29.90R
L.A. AP        MOCLDY    60  53  77 CALM      29.90R
L.A. DOWNTOWN  CLEAR     61  53  75 CALM      29.89R

$$

THE INLAND EMPIRE

CITY           SKY/WX    TMP DP  RH WIND       PRES   REMARKS
CORONA         CLOUDY    58  53  84 NW3       29.91R
CHINO          CLOUDY    60  53  77 SW5       29.91R
ONTARIO        CLOUDY    58  53  84 SW7       29.90R HAZE
SAN BERNARDINO CLOUDY    59  54  82 W3        29.91R FOG
RIVERSIDE AP   CLOUDY    58  55  90 W3        29.91R
MORENO VALLEY    N/A     56  55  95 SW1       28.03R
MARCH ARB      CLOUDY    57  53  85 SE6       29.90R
HORSETHIEF CYN   N/A     55  49  79 CALM      29.89R
PERRIS           N/A     56  53  91 S3        29.93R
HEMET EAST       N/A     52  46  80 CALM      29.92R
FRENCH VALLEY  CLOUDY    55  48  76 S7        29.92R
TEMECULA         N/A     58  53  85 S3        29.96R

$$

SAN BERNARDINO AND RIVERSIDE COUNTY MOUNTAINS

CITY           SKY/WX    TMP DP  RH WIND       PRES   REMARKS
BIG BEAR AP    SUNNY     50   9  18 W8G17     29.97R
ANGELUS OAKS     N/A     49  22  35 CALM      29.71R
PINE COVE        N/A     49  26  41 NW3       29.76R

$$

SOUTHERN DESERT INCLUDING THE COACHELLA VALLEY

CITY           SKY/WX    TMP DP  RH WIND       PRES   REMARKS
PALM SPRINGS   SUNNY     67  45  45 W10G18    29.71R
PALM DESERT      N/A     64  50  60 CALM      29.41
THERMAL        SUNNY     69  47  45 NW12      29.68R
BLYTHE         MOSUNNY   64  36  35 CALM      29.70R
IMPERIAL AP    MOSUNNY   72  38  29 W12       29.69R
EL CENTRO NAS  MOSUNNY   75  30  19 W20       29.71R
YUMA AZ        PTSUNNY   68  29  23 S6        29.71
MEXICALI       MOSUNNY   63  30  29 E3        29.71

$$

UPPER DESERT

CITY           SKY/WX    TMP DP  RH WIND       PRES   REMARKS
VICTORVILLE AP CLEAR     54  36  50 W25G33    29.87R
HESPERIA         N/A     49  44  81 W3        29.92R
PALMDALE       PTCLDY    54  39  57 W20G25    29.93R
LANCASTER      MOCLDY    53  40  61 S10G17    29.93R
EDWARDS AFB    MOCLDY    53  39  59 S16       29.87R
DAGGETT        SUNNY     62  31  31 SW28G40   29.78R
29 PALMS N     SUNNY     64  27  24 VRB3      29.84R
NEEDLES        MOSUNNY   73  21  14 W7        29.69R

$$

REGIONAL REPORTS

CITY           SKY/WX    TMP DP  RH WIND       PRES   REMARKS
SANTA BARBARA  CLEAR     54  49  83 CALM      29.89R
SANDBERG       PTCLDY    44  34  67 N35G43    29.96R
LAS VEGAS NV   CLOUDY    65  28  24 S6        29.68R
PHOENIX AZ     MOSUNNY   72  28  19 E9        29.73R
TIJUANA        CLOUDY    59  50  72 S3        29.93R
ENSENADA NW      N/A     60  32  35 E3        29.92R

$$

OFFSHORE ISLANDS

CITY           SKY/WX    TMP DP  RH WIND       PRES   REMARKS
CATALINA ARPT  PTCLDY    54  54 100 NE7       29.91R FOG
SAN CLEMENTE I MOCLDY    58  53  84 NW3       29.92R FOG
SAN NICOLAS IS PTCLDY    53  50  89 NW25G37   29.92R

$$

MARINE AND OFFSHORE BUOY REPORTS

STATION/POSITION SKY/WX   TEMP    WIND        PRES    VSBY  SWELL
                          AIR SEA DIR/SP/G                  HT/PER/DIR
                          (F)     (DEG/KT/KT) (MB)    (MI)  (FT/S/D)
TANNER BANKS               57 57  310/ 25/ 31 1012.8R         7/280/14
S CLEMENTE BASIN           59 62  300/  8/ 12 1012.4R         8/290/ 9
SAN NICOLAS IS.               56                N/A           7/260/14
SO. S. ROSA ISLA           54 54  310/ 29/ 33 1013.1R         7/290/14
W. S. BARBARA CH           53 51  330/ 25/ 29 1013.9R         8/290/14
M. S. BARBARA CH                  300/ 19/ 23 1012.6R
S. MONICA BASIN            58 59  350/  8/ 12 1012.5R         7/270/14
S PEDRO CHANNEL               62                N/A           3/270/14
CMP PENDLETON NS              62                N/A           2/220/14
OCEANSIDE OFFSHR              63                N/A           3/200/14
TORREY PINES OTR              63                N/A           3/230/14
POINT LOMA SOUTH              64                N/A           5/250/13

$$





USA.gov is the U.S. government's official web portal to all federal, state and local government web resources and services.